Hourly Weather Russkiy Eltan

Today, 20 April, Tuesday

Time Temperature Precipitation Wind Pressure Humidity
00:00 0°C° 0 mm 5 mps 761 mmHg 45%
01:00 0°C° 0 mm 5 mps 761 mmHg 49%
02:00 -1°C° 0 mm 5 mps 761 mmHg 54%
03:00 -2°C° 0 mm 4 mps 761 mmHg 58%
04:00 -1°C° 0 mm 4 mps 761 mmHg 56%
05:00 -1°C° 0 mm 5 mps 762 mmHg 54%
06:00 -1°C° 0 mm 5 mps 762 mmHg 53%
07:00 0°C° 0 mm 5 mps 762 mmHg 45%
08:00 +2°C° 0 mm 6 mps 762 mmHg 38%
09:00 +3°C° 0 mm 6 mps 762 mmHg 31%
10:00 +4°C° 0 mm 6 mps 762 mmHg 29%
11:00 +5°C° 0 mm 6 mps 762 mmHg 27%
12:00 +7°C° 0 mm 6 mps 762 mmHg 24%
13:00 +8°C° 0 mm 6 mps 761 mmHg 24%
14:00 +8°C° 0 mm 6 mps 761 mmHg 23%
15:00 +9°C° 0 mm 6 mps 761 mmHg 23%
16:00 +8°C° 0 mm 6 mps 760 mmHg 26%
17:00 +8°C° 0 mm 5 mps 760 mmHg 29%
18:00 +7°C° 0 mm 5 mps 760 mmHg 31%
19:00 +6°C° 0 mm 5 mps 760 mmHg 35%
20:00 +5°C° 0 mm 4 mps 760 mmHg 39%
21:00 +4°C° 0 mm 4 mps 760 mmHg 43%
22:00 +3°C° 0 mm 4 mps 760 mmHg 45%
23:00 +2°C° 0 mm 5 mps 760 mmHg 46%

Tomorrow, 21 April, Wednesday

Time Temperature Precipitation Wind Pressure Humidity
00:00 +2°C° 0 mm 5 mps 760 mmHg 48%
01:00 +1°C° 0 mm 5 mps 759 mmHg 49%
02:00 +1°C° 0 mm 6 mps 759 mmHg 49%
03:00 +1°C° 0 mm 6 mps 759 mmHg 50%
04:00 +1°C° 0 mm 6 mps 759 mmHg 49%
05:00 0°C° 0 mm 7 mps 759 mmHg 48%
06:00 0°C° 0 mm 7 mps 758 mmHg 48%
07:00 +1°C° 0 mm 8 mps 758 mmHg 44%
08:00 +2°C° 0 mm 8 mps 758 mmHg 41%
09:00 +3°C° 0 mm 9 mps 758 mmHg 37%
10:00 +3°C° 0 mm 9 mps 758 mmHg 37%
11:00 +5°C° 0 mm 9 mps 758 mmHg 37%
12:00 +5°C° 0 mm 8 mps 757 mmHg 37%
13:00 +4°C° 0.2 mm 8 mps 757 mmHg 44%
14:00 +4°C° 0.2 mm 8 mps 757 mmHg 50%
15:00 +3°C° 0.2 mm 7 mps 757 mmHg 57%
16:00 +3°C° 0.5 mm 7 mps 757 mmHg 64%
17:00 +2°C° 0.5 mm 7 mps 757 mmHg 72%
18:00 +1°C° 0.5 mm 8 mps 757 mmHg 80%
19:00 0°C° 1 mm 8 mps 757 mmHg 85%
20:00 0°C° 1 mm 7 mps 757 mmHg 90%
21:00 0°C° 1 mm 7 mps 757 mmHg 95%
22:00 0°C° 1 mm 7 mps 757 mmHg 95%
23:00 -1°C° 1 mm 7 mps 757 mmHg 96%

Day after tomorrow, 22 April, Thursday

Time Temperature Precipitation Wind Pressure Humidity
00:00 -1°C° 1 mm 7 mps 757 mmHg 96%
01:00 -1°C° 1.3 mm 7 mps 757 mmHg 96%
02:00 -1°C° 1.3 mm 6 mps 757 mmHg 96%
03:00 -1°C° 1.3 mm 6 mps 757 mmHg 96%
04:00 -1°C° 0.6 mm 6 mps 757 mmHg 97%
05:00 +1°C° 0.6 mm 6 mps 757 mmHg 97%
06:00 +1°C° 0.6 mm 6 mps 757 mmHg 97%
07:00 +1°C° 0.1 mm 6 mps 757 mmHg 96%
08:00 +2°C° 0.1 mm 6 mps 757 mmHg 96%
09:00 +2°C° 0.1 mm 6 mps 757 mmHg 95%
10:00 +3°C° 0 mm 6 mps 757 mmHg 92%
11:00 +3°C° 0 mm 6 mps 757 mmHg 89%
12:00 +4°C° 0 mm 6 mps 758 mmHg 86%
13:00 +5°C° 0 mm 6 mps 758 mmHg 85%
14:00 +5°C° 0 mm 6 mps 758 mmHg 84%
15:00 +7°C° 0 mm 6 mps 758 mmHg 82%
16:00 +5°C° 0 mm 6 mps 758 mmHg 83%
17:00 +5°C° 0 mm 6 mps 758 mmHg 84%
18:00 +5°C° 0 mm 6 mps 758 mmHg 84%
19:00 +4°C° 0 mm 6 mps 758 mmHg 87%
20:00 +5°C° 0 mm 5 mps 758 mmHg 89%
21:00 +3°C° 0 mm 5 mps 758 mmHg 92%
22:00 +3°C° 0 mm 5 mps 758 mmHg 93%
23:00 +3°C° 0 mm 5 mps 758 mmHg 93%

23 April, Friday

Time Temperature Precipitation Wind Pressure Humidity
00:00 +2°C° 0 mm 5 mps 758 mmHg 94%
01:00 +3°C° 0.1 mm 4 mps 758 mmHg 95%
02:00 +3°C° 0.1 mm 4 mps 758 mmHg 95%
03:00 +3°C° 0.1 mm 3 mps 758 mmHg 96%
04:00 +3°C° 0 mm 3 mps 758 mmHg 96%
05:00 +3°C° 0 mm 3 mps 758 mmHg 96%
06:00 +3°C° 0 mm 3 mps 759 mmHg 96%
07:00 +3°C° 0 mm 3 mps 759 mmHg 94%
08:00 +4°C° 0 mm 3 mps 759 mmHg 92%
09:00 +4°C° 0 mm 3 mps 759 mmHg 90%
10:00 +7°C° 0 mm 3 mps 759 mmHg 85%
11:00 +8°C° 0 mm 3 mps 759 mmHg 80%
12:00 +9°C° 0 mm 3 mps 759 mmHg 75%
13:00 +10°C° 0 mm 2 mps 759 mmHg 72%
14:00 +10°C° 0 mm 2 mps 758 mmHg 70%
15:00 +12°C° 0 mm 2 mps 758 mmHg 68%
16:00 +12°C° 0 mm 2 mps 758 mmHg 70%
17:00 +10°C° 0 mm 2 mps 758 mmHg 72%
18:00 +10°C° 0 mm 3 mps 758 mmHg 75%
19:00 +9°C° 0 mm 2 mps 758 mmHg 78%
20:00 +8°C° 0 mm 2 mps 757 mmHg 82%
21:00 +7°C° 0 mm 2 mps 757 mmHg 86%
22:00 +6°C° 0 mm 2 mps 757 mmHg 87%
23:00 +6°C° 0 mm 2 mps 757 mmHg 88%

24 April, Saturday

Time Temperature Precipitation Wind Pressure Humidity
00:00 +5°C° 0 mm 2 mps 756 mmHg 89%
01:00 +5°C° 0 mm 2 mps 756 mmHg 90%
02:00 +5°C° 0 mm 2 mps 756 mmHg 91%
03:00 +5°C° 0 mm 2 mps 755 mmHg 91%
04:00 +4°C° 0 mm 3 mps 755 mmHg 90%
05:00 +4°C° 0 mm 3 mps 755 mmHg 90%
06:00 +4°C° 0 mm 3 mps 754 mmHg 89%
07:00 +5°C° 0 mm 3 mps 754 mmHg 87%
08:00 +7°C° 0 mm 3 mps 753 mmHg 85%
09:00 +7°C° 0 mm 3 mps 753 mmHg 83%
10:00 +7°C° 0.2 mm 3 mps 753 mmHg 86%
11:00 +7°C° 0.2 mm 3 mps 753 mmHg 88%
12:00 +6°C° 0.2 mm 2 mps 752 mmHg 91%
13:00 +6°C° 0.1 mm 2 mps 752 mmHg 92%
14:00 +6°C° 0.1 mm 2 mps 752 mmHg 92%
15:00 +6°C° 0.1 mm 2 mps 752 mmHg 93%
16:00 +6°C° 0 mm 2 mps 751 mmHg 93%
17:00 +7°C° 0 mm 1 mps 751 mmHg 94%
18:00 +7°C° 0 mm 1 mps 751 mmHg 94%
19:00 +6°C° 0 mm 0 mps 751 mmHg 94%
20:00 +6°C° 0 mm 0 mps 751 mmHg 94%
21:00 +6°C° 0 mm 0 mps 751 mmHg 94%
22:00 +7°C° 0 mm 1 mps 750 mmHg 94%
23:00 +7°C° 0 mm 1 mps 750 mmHg 94%

25 April, Sunday

Time Temperature Precipitation Wind Pressure Humidity
00:00 +7°C° 0 mm 1 mps 750 mmHg 94%
01:00 +5°C° 0 mm 2 mps 750 mmHg 94%
02:00 +5°C° 0 mm 2 mps 750 mmHg 94%
03:00 +4°C° 0 mm 2 mps 750 mmHg 94%
04:00 +5°C° 0 mm 2 mps 750 mmHg 93%
05:00 +4°C° 0 mm 3 mps 750 mmHg 92%
06:00 +4°C° 0 mm 3 mps 750 mmHg 91%
07:00 +6°C° 0 mm 4 mps 750 mmHg 86%
08:00 +7°C° 0 mm 4 mps 750 mmHg 80%
09:00 +9°C° 0 mm 5 mps 750 mmHg 75%
10:00 +10°C° 0 mm 5 mps 750 mmHg 71%
11:00 +13°C° 0 mm 5 mps 750 mmHg 66%
12:00 +14°C° 0 mm 5 mps 750 mmHg 62%
13:00 +14°C° 0.4 mm 5 mps 750 mmHg 60%
14:00 +15°C° 0.4 mm 5 mps 750 mmHg 59%
15:00 +15°C° 0.4 mm 4 mps 750 mmHg 57%
16:00 +14°C° 0.3 mm 4 mps 750 mmHg 64%
17:00 +13°C° 0.3 mm 3 mps 750 mmHg 71%
18:00 +11°C° 0.3 mm 3 mps 750 mmHg 79%
19:00 +11°C° 0.6 mm 3 mps 750 mmHg 83%
20:00 +10°C° 0.6 mm 2 mps 750 mmHg 87%
21:00 +9°C° 0.6 mm 2 mps 750 mmHg 92%
22:00 +10°C° 0.6 mm 1 mps 750 mmHg 93%
23:00 +10°C° 0.6 mm 1 mps 750 mmHg 93%
Show more